Regional Weather Roundup
Issued by NWS

Home | Current Version | Previous Version | Text Only | Print | Product List | Glossary On
Versions: 1 2 3 4 5 6 7 8 9 10 11 12 13 14 15 16 17 18 19 20 21 22 23 24 25 26 27 28 29 30 31 32 33 34 35 36 37 38 39 40 41 42 43 44 45 46 47 48 49 50
000
ASUS43 KMPX 230410
RWRMN
WEATHER ROUNDUP FOR MINNESOTA
NATIONAL WEATHER SERVICE TWIN CITIES/CHANHASSEN MN
1100 PM CDT WED OCT 22 2014


NOTE: "FAIR" INDICATES FEW OR NO CLOUDS BELOW 12,000 FEET WITH NO
SIGNIFICANT WEATHER AND/OR OBSTRUCTIONS TO VISIBILITY. N/A MEANS
CURRENT SKY AND/OR WEATHER CONDITIONS ARE NOT AVAILABLE.

MNZ060>063-068>070-230500-
   Twin Cities Metro

CITY           SKY/WX    TMP DP  RH WIND       PRES   REMARKS
TWIN CITIES    CLOUDY    55  40  56 S9G17     30.05F
ST PAUL        CLOUDY    54  41  61 SE17G23   30.05F
CRYSTAL        CLOUDY    57  41  55 S10G20    30.02F
BLAINE         CLOUDY    57  43  58 S12G18    30.03F
LAKEVILLE      MOCLDY    54  41  62 S10G17    30.03F
EDEN PRAIRIE   CLOUDY    56  42  59 S12       30.03F
SOUTH ST PAUL  MOCLDY    56  40  55 SE10G18   30.05F
LAKE ELMO      FAIR      54  41  62 S12       30.06F
$$
MNZ001>005-007-008-013>017-022>024-027-028-230500-
   Northwest Minnesota

CITY           SKY/WX    TMP DP  RH WIND       PRES   REMARKS
BEMIDJI        CLOUDY    53  47  78 S10G16    29.91S
HALLOCK        MOCLDY    52  48  87 S12       29.81S
ROSEAU         CLOUDY    54  48  82 S10       29.83F
WARROAD        CLOUDY    52  48  87 S6        29.85S
THIEF RVR FALL CLOUDY    54  52  94 S12       29.87S
CROOKSTON      FAIR      52  52 100 S9        29.87S
FOSSTON        CLOUDY    52  52 100 S9        29.89F
DETROIT LAKES  CLOUDY    54  52  94 S5        29.92F
MOORHEAD       PTCLDY    54  54 100 S5        29.91S
PARK RAPIDS    CLOUDY    51  50  96 S12       29.93S
MAHNOMEN       CLOUDY    53  52  96 S8        29.90S
$$
MNZ006-009>011-018-025>026-230500-
   North Central Minnesota

CITY           SKY/WX    TMP DP  RH WIND       PRES   REMARKS
BAUDETTE       CLOUDY    54  44  69 S15G22    29.87F
FLAG ISLAND    DRIZZLE   48  48 100 S15       29.83F
INTL FALLS     CLOUDY    54  40  59 S10G16    29.91F
WASKISH        DRIZZLE   52  46  82 CALM      29.89F
BIG FORK       LGT RAIN  54  41  62 S10       29.94F
LONGVILLE      RAIN      52  45  76 S13G21    29.94S
GRAND RAPIDS   MOCLDY    52  37  58 S15       29.96S
CRANE LAKE     PTCLDY    48  37  66 S6        29.98F
ORR            MOCLDY    52  36  54 S8        29.94F
COOK           PTCLDY    50  37  62 S8        29.98F
WALKER         HVY RAIN  51  46  85 S6        29.93R
$$
MNZ012-019>021-037-230500-
   Northeast Minnesota

CITY           SKY/WX    TMP DP  RH WIND       PRES   REMARKS
DULUTH         MOCLDY    51  34  52 S10       30.02F
ELY            PTCLDY    46  36  66 S7        30.00F
HIBBING        PTCLDY    51  36  56 S8        29.99F
EVELETH        PTCLDY    46  36  66 S6        30.01F
DULUTH HARBOR  CLOUDY    52  46  82 E3        30.04F
TWO HARBORS    MOCLDY    46  30  53 CALM      30.03S
SILVER BAY     PTCLDY    45  37  76 CALM      30.03F
GRAND MARAIS     N/A     49  37  63 VRB3      30.07F
G MARAIS ARPRT PTCLDY    45  30  57 S6        30.07F
$$
MNZ029>031-032-039>041-046>048-054>057-064-230500-
   West Central Minnesota

CITY           SKY/WX    TMP DP  RH WIND       PRES   REMARKS
FERGUS FALLS   CLOUDY    54  52  94 S5        29.94R
WHEATON        CLOUDY    52  48  87 SW5       29.96R
MORRIS         CLOUDY    55  54  94 CALM      29.94F
ALEXANDRIA     CLOUDY    55  55 100 SW6       29.96S
ELBOW LAKE     CLOUDY    54  53  96 SW5       29.93F
WADENA         CLOUDY    52  52 100 S8        29.94R FOG
GLENWOOD       CLOUDY    55  54  94 S5        29.96S FOG
APPLETON       CLOUDY    57  54  88 S3        29.96S
BENSON         CLOUDY    57  55  94 W3        29.96F
ORTONVILLE     CLOUDY    55  52  88 CALM      29.95S
MADISON        CLOUDY    59  55  88 CALM      29.97S
WILLMAR        RAIN      55  52  88 CALM      29.98S
$$
MNZ033>034-036-042>043-049>051-058-059-230500-
   Central Minnesota

CITY           SKY/WX    TMP DP  RH WIND       PRES   REMARKS
ST CLOUD       CLOUDY    57  44  62 S12       30.00S
SAUK CENTRE    DRIZZLE   52  50  93 S13       29.96F
PAYNESVILLE    CLOUDY    54  46  76 SE8       29.98R
AITKIN         MIX PCPN  54  45  71 S13G18    29.96F
PINE RIVER     LGT RAIN  52  46  82 S8        29.98S
BRAINERD       CLOUDY    53  43  68 S20G29    29.96F
STAPLES        LGT RAIN  52  48  87 S5        29.95R
LONG PRAIRIE   DRIZZLE   52  50  93 S12       29.96S
LITTLE FALLS   LGT RAIN  54  43  66 SE8       29.97F
LITCHFIELD     DRIZZLE   57  48  72 S8        29.99F
BUFFALO        DRIZZLE   55  42  60 SE9       30.02F
MAPLE LAKE     DRIZZLE   54  47  80 SE7       30.01F
$$
MNZ037-044-045-052-053-230500-
   East Central Minnesota

CITY           SKY/WX    TMP DP  RH WIND       PRES   REMARKS
PRINCETON      CLOUDY    55  43  62 SE10G16   30.02S
MORA           CLOUDY    52  39  62 S7        30.03F
CAMBRIDGE      CLOUDY    57  43  58 SE9       30.01F
RUSH CITY      CLOUDY    53  39  60 SE8       30.04S
MOOSE LAKE     MOCLDY    50  37  62 S7        30.00F
HINCKLEY       FAIR      52  39  62 SE9       30.03F
CLOQUET        PTCLDY    48  36  61 SE3       30.02F
MCGREGOR       MOCLDY    52  41  66 S9        29.99F
$$
MNZ071>073-080-081-089-090-097-098-230500-
   Southwest Minnesota

CITY           SKY/WX    TMP DP  RH WIND       PRES   REMARKS
MONTEVIDEO     CLOUDY    57  55  94 W3        29.98S
GRANITE FALLS  CLOUDY    57  56  96 SW8       30.00R
CANBY          CLOUDY    55  53  91 CALM      29.99S
MARSHALL       CLOUDY    57  52  82 W9        29.99R
REDWOOD FALLS  CLOUDY    57  54  89 S10       29.98S
OLIVIA         DRIZZLE   57  52  82 S7        29.97F
PIPESTONE      CLOUDY    55  54  94 W7        30.01S
WINDOM         LGT RAIN  57  55  94 S9        30.01S
WORTHINGTON    CLOUDY    57  55  94 S9        30.02F
JACKSON        CLOUDY    55  54  94 S10       30.03S
TRACY          DRIZZLE   58  57  95 W9        30.00R
SLAYTON        CLOUDY    56  56  99 W13       30.02R FOG
$$
MNZ065>067-074>077-082>085-091>093-230500-
   South Central Minnesota

CITY           SKY/WX    TMP DP  RH WIND       PRES   REMARKS
MANKATO        CLOUDY    55  39  54 S16G23    30.03S
NEW ULM        DRIZZLE   55  52  88 S13       30.00F
ST JAMES       LGT RAIN  57  52  82 S8        30.04R
FAIRMONT       CLOUDY    55  45  67 S13       30.04S
GLENCOE        LGT RAIN  58  47  64 S10G18    30.01R
FARIBAULT      PTCLDY    54  43  66 SE14G20   30.05F
OWATONNA       PTCLDY    54  41  62 S16G23    30.06F
WASECA         MOCLDY    54  37  54 S17G25    30.06F
ALBERT LEA     MOCLDY    55  43  62 S13       30.08F
$$
MNZ078>079-086>088-094>096-230500-
   Southeast Minnesota

CITY           SKY/WX    TMP DP  RH WIND       PRES   REMARKS
ROCHESTER      CLOUDY    52  39  61 S16G24    30.09F
STANTON        PTCLDY    55  40  57 S12G20    30.05F
DODGE CENTER   PTCLDY    54  41  62 S16G22    30.10R
WINONA         CLOUDY    52  43  71 SE7       30.13F
AUSTIN         MOCLDY    52  41  66 S9        30.11R
PRESTON        CLOUDY    50  40  69 S12       30.12F
$$
ABBREVIATIONS USED IN REMARKS
   TC - TEMPERATURES IN CELSIUS
  WCI - WIND CHILL INDEX
   HX - HEAT INDEX
  VSB - VISIBILITY
$$



USA.gov is the U.S. government's official web portal to all federal, state and local government web resources and services.